Reflectivity
-20 -20 -20 -20 -20 -9 -20 -20 -20 7 -20 -19 5 -20 -3 -2 -7 -20 -20 -20 -20 -20 -20 -4 -20 -20 -20 7 -20 -20 -20 -20 -20 -20 -20 -10 -12 -6 -20 -20 -20 -20 4 18 10 -20 -20 -20 -20
-20 -20 -20 -20 -20 -20 -20 -20 -20 -16 9 -20 -20 -20 4 -14 -20 -20 -20 -20 -20 -20 -20 -3 -20 -8 -20 -20 -20 -20 -20 -20 -20 -20 -20 10 -20 0 -20 -20 -20 -20 8 11 -15 -20 -20 -20 -20
-20 -20 -20 -20 -20 -20 -20 -8 -14 -20 -4 1 -20 -9 -0 -2 -20 -20 -20 -20 -20 -20 -20 -16 -11 -4 -20 -20 -20 -20 -20 -20 -20 -20 -20 -18 3 -4 -20 -20 -20 -20 -20 -11 -12 -20 -20 -20 -20
-20 -20 -20 -20 -20 -20 5 -15 6 -8 -20 20 -1 -15 -12 5 -20 -20 -20 -20 -20 -20 -20 6 12 -20 -20 -20 15 -20 -20 -20 -20 -20 -20 -20 14 -8 -20 -20 -20 -20 -20 -20 -20 -20 -20 -20 -20
-20 -20 -20 -20 -20 -10 -12 -20 -10 -20 -20 6 17 17 -11 -20 -20 -20 -20 -20 -20 -20 -20 -19 -20 -20 -20 -20 -20 -20 -20 -20 -20 -20 -20 -20 9 -20 -20 -20 -20 -20 -20 -20 -20 -20 -20 -20 -20
25 -17 -20 -20 -20 -10 -20 -20 6 9 -20 -20 26 -0 -20 -12 -20 -20 -20 -20 -20 -20 -20 -1 15 -20 -20 -20 -20 -20 -20 -20 -20 -20 -20 -17 -7 -20 -20 -20 -20 -20 -20 -20 -20 -20 -20 -20 -20
20 -20 -20 -20 -20 -20 -20 -20 7 -17 -3 -20 3 15 4 2 -13 -20 -20 -20 -20 -20 -17 6 6 -17 -20 -20 -20 -20 -20 -20 -20 -20 -20 11 17 10 -20 -20 -20 -20 -20 -20 -20 -20 -20 -20 -20
-20 23 -20 -10 15 -2 -5 -20 4 -20 -12 -20 -20 9 30 2 26 6 -20 -20 -20 -20 -19 9 10 0 -20 -20 -20 -20 -20 -20 -9 -20 -19 -20 -12 -2 -20 -20 -20 -20 -20 -20 -20 -20 -20 -20 -20
9 12 22 15 23 -17 -14 -18 -2 -12 -20 -20 -20 -15 -6 18 8 2 12 -20 -20 -16 -19 1 0 -19 -5 -20 -20 -20 -20 -20 -20 -20 -20 -20 -20 -20 -20 -20 -20 -20 -20 -20 -20 -20 -20 -20 -20
10 29 -15 -20 -20 -20 -20 -7 -20 5 -20 -20 -20 -20 -20 5 15 17 -5 5 -6 7 6 13 12 -20 2 -20 -20 -20 -20 -20 -20 -20 -20 -20 -20 -20 -20 -20 -20 -20 -20 -20 -20 -20 -20 -20 -20
22 -6 -20 13 21 -9 -20 -20 -20 3 -8 -20 -20 -20 -20 10 8 9 14 12 0 11 10 17 -10 -8 -8 -20 -20 -20 -20 -20 -20 -20 -20 -20 -20 -20 -20 -20 -20 -20 -20 -20 -20 -20 -20 -20 -20
0 28 19 -7 17 26 -20 -20 1 14 -7 -20 -20 -20 -20 28 8 7 14 -10 12 -10 9 14 8 14 4 -12 -20 -20 -20 -20 -20 -20 -20 -20 -20 -20 -20 -20 -20 -20 -20 -20 -20 -20 -20 -20 -20
28 3 -8 41 33 -20 -20 -20 -20 15 -13 -20 -20 -20 -20 3 9 -13 25 9 10 -1 -20 12 1 -9 5 5 -20 -20 -20 -20 -20 -20 -20 -20 -20 -20 -20 -20 -20 -20 -20 -20 -20 -20 -20 -20 -20
-20 22 17 22 -17 -20 -20 -20 -20 -0 -9 -3 -19 -20 -20 14 -19 14 -15 -19 13 -6 -20 -20 -7 -16 -11 -15 9 -16 -20 -20 -20 -20 -20 -20 -20 -20 -20 -20 -20 -20 -20 -20 -20 -20 -20 -20 -20
-11 -9 10 6 33 35 -9 23 -20 -18 -7 -20 -20 -20 -20 -20 -9 -20 -19 -20 -20 -18 -6 3 1 -19 11 -15 -7 -20 -20 -20 -20 -20 -20 -20 -20 -20 -20 -20 -20 -20 -20 -20 -20 -20 -20 -20 -20
-19 -7 8 -1 34 25 4 -20 -20 -14 -0 -19 -20 -20 -20 -20 -12 -20 -20 -20 -20 -20 -20 -20 -20 -16 -18 -13 -7 -16 -20 -20 -20 -20 -20 -20 -20 -20 -20 -20 -20 -20 -20 -20 -20 -20 -20 -20 -20
-13 0 -14 7 -13 26 -9 -20 -20 13 16 16 -20 -20 -20 -20 -2 -20 -20 -20 -20 -20 -20 -13 -3 -20 -20 -16 -1 -13 -20 -20 -20 -20 -20 -20 -20 -20 -20 -20 -20 -20 -20 -20 -20 -20 -20 -20 -20
-12 -8 -20 -15 -19 6 1 -18 -14 -18 -20 -20 -20 -20 -20 -20 -20 -20 -20 32 -20 -20 -20 -20 -20 -19 -20 -20 -20 -20 -20 -20 -20 -20 -20 -20 -20 -20 -20 -20 -20 -20 -20 -20 -20 -20 -15 -2 10
-20 7 5 -9 8 -13 18 3 17 -17 -4 -19 27 7 -15 -20 -20 -20 -20 -20 -20 -20 -20 -20 -20 -20 -20 -20 7 2 0 -20 -20 -20 -20 -20 -20 -20 -20 -20 -20 -20 -20 -20 -12 -20 -19 -11 1
-0 -1 15 -3 10 -17 1 -15 -20 -10 -20 -20 3 -9 -20 -20 -20 -20 -17 -19 -20 -20 -20 -20 -20 -20 -20 -20 -18 16 9 -0 3 3 -20 -20 -20 -20 -20 -20 -17 -20 -15 -20 -20 15 0 -1 -15
-20 -20 -19 -5 -20 1 -13 -16 -20 -20 -20 -20 -20 -17 -20 -20 -20 -20 -11 -3 -20 -20 -20 -20 -20 -20 -20 -20 -20 -20 -20 -20 -20 -20 -20 -20 -20 -20 -20 -20 8 -1 15 15 2 5 12 8 -8
-19 -20 0 -20 11 -16 -20 -20 -20 -20 -19 -7 -20 -20 -20 -20 -19 -20 -20 -3 -17 -20 -20 -20 -20 -20 -20 -20 -20 -20 -20 -20 -20 -20 -20 -20 -20 -20 -20 -20 -20 -20 -20 -17 -20 -12 8 13 7
8 -3 -19 -19 -20 -20 -20 -20 -20 -20 -20 -20 -20 -20 -20 -9 -20 -20 -20 -20 -20 -20 -20 -20 -20 -20 -20 -20 -20 -20 -20 -20 -20 -20 -20 -20 -20 -20 -20 -20 -20 -20 -20 -20 -20 -20 -20 -20 -8
-19 -20 -20 -4 -20 -1 -20 -20 -20 -20 -20 -20 0 -20 -20 -20 -4 -1 -20 -20 -20 -20 -20 -20 -20 -20 -20 -20 -20 -20 -20 -20 -20 -20 -20 -20 -20 -20 -20 -20 -20 -20 -20 -20 -20 -20 -20 -20 -17
-20 -4 7 5 2 -11 -20 -20 -20 -20 -20 -20 -20 -20 -20 -20 -20 -20 -20 -20 -20 -20 -5 2 -4 -20 -20 -20 -20 -20 -20 -20 -20 -20 -20 -20 -20 -20 -20 -20 -20 -20 -20 -20 -20 -20 -20 -20 1
-17 -20 -18 -20 -20 -20 -20 -20 -20 -20 -20 -20 -20 -20 -17 -20 -20 -20 -20 -20 -20 -5 -20 -20 -20 -20 -12 -20 -20 -20 -20 -20 -20 -20 -20 -20 -20 -20 -20 -20 -20 -20 -20 -20 -20 -20 -20 -0 4
15 12 -20 -20 -20 -20 -20 -20 -20 -20 -20 -20 -20 -20 -20 -20 -20 -20 -20 -20 -20 -20 -20 -20 -20 -18 -16 -20 -20 -20 -20 -20 -20 -20 -20 -20 -20 -20 -20 -20 -20 -20 -20 -20 -20 -20 -20 -20 -20
-5 -15 -11 -20 -20 -20 -20 -20 -20 -20 -20 -20 -20 -20 -20 -20 -20 -20 -20 -20 -20 -20 -20 -20 -16 -17 -20 -16 -20 -20 -20 -20 -20 -20 -20 -20 -20 -20 -20 -20 -20 -20 -20 -20 -20 -20 -20 -20 -20
-7 -20 -9 -11 -20 -9 -20 -20 -20 -20 -20 -20 -20 -20 -20 -20 -20 -20 -20 -20 -20 -20 -20 -18 1 -14 -20 -20 -20 -20 -20 -20 -20 -20 -20 -20 -20 -20 -20 -20 -20 -20 -20 -20 -20 -20 -20 -20 -20
-18 3 -20 4 -3 -20 -20 -20 -20 -20 -20 -20 -20 -20 -20 -20 -20 -20 -20 -20 -20 -20 -20 -20 -20 -20 -20 -20 -20 -20 -20 -20 -20 -20 -20 -20 -20 -20 -20 -20 -20 -20 -20 -20 -20 -20 -20 -20 -20
Wind_Speed
13 9 3 4 6 8 14 9 2 7 6 3 4 7 4 10 9 6 14 11 20 18 19 17 14 14 14 14 14 13 11 10 10 10 10 13 13 13 13 13 12 14 14 14 15 15 14 13 13
11 6 4 5 8 14 13 11 12 10 6 2 1 5 6 10 12 12 13 15 19 18 17 17 14 14 15 15 14 13 12 10 10 10 9 11 13 13 13 12 13 13 13 13 14 13 13 11 11
12 8 7 6 10 16 15 10 9 5 2 2 2 4 4 8 6 16 15 18 19 18 17 17 16 16 15 14 14 14 12 10 9 9 9 8 13 14 13 13 13 12 12 12 12 12 11 11 11
6 6 9 11 16 21 10 12 5 7 4 1 7 6 7 4 7 8 15 20 18 18 18 17 15 15 14 11 13 14 11 10 10 9 9 7 13 15 14 13 13 12 12 11 11 11 11 11 11
7 8 11 15 18 16 3 8 3 3 7 11 2 4 6 8 2 11 16 17 17 16 19 16 16 15 14 13 12 11 10 10 10 10 8 7 16 14 14 12 12 11 11 10 9 10 10 10 9
9 10 13 17 20 8 8 3 4 1 3 9 4 4 7 5 4 13 16 16 16 16 15 16 15 14 13 12 10 10 10 10 9 10 9 7 15 13 14 11 10 10 9 9 8 8 8 8 8
13 13 19 22 18 9 9 4 5 1 5 4 3 8 6 8 3 6 13 14 15 17 14 14 13 13 11 10 9 9 10 8 6 9 9 10 12 12 13 9 9 8 8 7 6 6 6 6 6
8 10 21 17 15 11 7 5 3 4 7 2 3 8 7 9 3 4 4 15 13 15 14 14 13 14 12 10 8 9 9 8 11 9 10 10 9 11 10 8 7 7 6 6 5 4 4 4 4
5 4 16 12 20 11 7 7 4 1 2 4 4 5 4 9 7 4 7 7 10 11 9 11 11 13 10 11 9 8 8 9 10 10 9 11 7 8 9 9 8 5 4 4 3 3 3 3 4
6 5 22 21 14 14 11 4 6 2 6 5 5 6 5 11 10 9 7 10 6 11 10 9 9 11 9 9 10 9 9 8 9 9 10 7 5 5 6 8 5 4 3 4 4 4 5 7 5
10 11 15 15 6 7 12 10 2 1 2 7 6 4 4 10 8 8 13 11 13 10 11 10 9 8 7 6 7 6 6 5 5 7 7 4 3 4 4 5 5 6 7 6 7 8 8 4 2
10 21 12 10 7 10 13 8 6 6 9 4 4 5 6 7 7 5 6 11 12 11 7 11 9 8 10 4 7 7 5 5 4 5 6 4 4 3 3 3 3 3 4 5 4 3 3 4 5
24 17 18 21 8 12 11 12 11 2 2 1 4 6 9 7 6 5 3 5 8 10 9 10 10 9 8 7 6 5 6 4 6 4 5 4 3 3 3 3 3 3 2 3 4 4 4 4 5
16 14 17 13 8 14 16 12 16 15 5 5 2 6 6 6 11 7 5 6 4 12 14 12 8 9 7 7 6 6 6 6 4 5 4 5 3 3 3 3 3 3 4 4 4 4 4 4 4
4 20 9 14 10 11 14 15 23 20 9 6 6 1 5 4 4 8 11 11 9 8 9 12 11 8 7 9 6 7 5 5 5 5 7 6 5 4 4 4 3 4 4 5 5 5 5 5 5
10 17 13 17 19 8 15 20 20 24 18 8 11 10 1 3 2 4 4 6 10 10 11 10 8 8 11 8 5 6 6 6 6 5 5 7 7 6 5 4 4 4 4 4 5 5 5 5 6
11 13 18 17 16 10 14 10 7 19 17 15 14 13 8 4 3 3 2 4 7 9 10 10 9 10 9 8 6 7 6 6 6 5 5 7 7 7 6 5 5 6 5 5 5 6 6 6 6
15 15 19 13 16 18 13 10 1 10 19 24 20 15 13 9 7 1 2 2 4 7 9 9 8 9 9 7 6 5 6 6 6 6 6 6 6 7 6 6 6 6 5 6 6 7 6 6 6
15 17 19 20 10 14 17 15 14 10 14 21 22 19 18 14 8 6 3 2 2 5 7 10 10 9 7 6 5 6 7 6 6 5 6 5 5 6 6 6 7 6 7 7 7 7 7 6 5
17 19 11 3 10 13 16 15 14 16 18 19 18 24 23 20 13 9 7 5 4 5 8 8 9 9 8 6 4 4 3 5 3 3 3 4 5 5 5 6 5 5 4 6 8 7 4 3 3
18 18 14 13 9 13 9 15 16 17 18 17 18 18 22 22 19 15 11 8 5 6 6 6 6 6 6 5 3 1 1 1 2 3 3 1 1 1 3 3 3 3 2 3 4 3 3 4 3
11 12 14 11 14 8 15 6 18 17 17 20 19 15 16 18 19 16 13 10 7 6 4 4 5 5 4 5 5 7 6 5 1 2 3 2 2 2 2 2 3 4 3 5 4 4 3 4 6
10 8 9 9 12 5 10 7 13 10 17 18 18 16 15 13 11 13 9 10 9 8 7 7 6 5 5 5 4 4 3 2 2 2 3 2 2 2 2 3 3 3 3 4 5 5 5 5 5
9 11 8 4 7 8 14 10 9 10 10 13 14 15 17 15 14 11 11 9 9 9 7 6 9 7 6 5 4 4 3 3 3 2 2 1 1 1 2 3 3 3 3 4 4 4 5 6 6
16 16 6 5 4 6 1 11 12 1 4 4 2 9 13 15 15 14 14 14 12 12 11 9 10 10 7 6 5 4 3 2 1 1 1 1 1 1 1 4 4 4 4 5 5 6 5 6 5
14 17 5 6 8 10 5 6 7 4 2 3 5 8 8 7 9 13 15 12 11 11 11 10 9 10 9 7 6 4 4 2 2 2 1 0 2 3 4 4 4 5 5 6 6 5 4 3 4
9 4 5 3 5 1 7 6 11 4 8 7 7 3 5 7 8 8 9 10 12 11 11 12 11 10 9 8 6 6 4 3 3 2 2 2 2 2 4 4 5 5 5 5 6 4 5 1 2
4 9 4 1 4 5 5 5 4 8 7 6 5 4 3 3 5 5 6 9 11 11 11 11 10 10 9 8 6 5 5 4 3 1 2 2 1 2 3 4 4 4 5 5 4 4 3 4 2
5 4 4 4 2 4 2 4 8 9 8 8 9 9 8 5 3 4 5 8 9 11 12 12 11 10 8 7 6 6 5 4 3 2 1 2 3 3 3 3 4 4 5 5 4 2 3 1 1
5 12 13 6 5 2 4 2 4 10 4 4 5 5 6 6 3 3 5 9 11 11 12 12 11 10 8 7 6 6 5 4 3 2 2 2 3 3 4 3 4 4 4 4 3 2 2 2 2
Wind_Direction
275 242 264 232 222 231 225 202 128 207 184 58 316 303 290 27 177 71 143 131 134 141 141 156 149 140 136 124 119 120 115 107 107 107 110 107 96 86 79 82 84 86 86 91 87 84 82 81 81
295 245 219 235 237 212 223 171 192 190 79 337 230 248 265 86 53 126 129 145 147 140 147 151 145 138 130 129 129 128 120 117 114 117 119 113 105 92 83 87 89 89 89 94 89 85 80 77 78
256 243 217 222 228 227 220 146 194 166 176 243 204 269 3 73 82 144 122 144 146 135 155 128 144 135 133 137 139 137 127 118 122 125 125 120 116 98 90 89 89 89 91 89 89 82 75 71 78
240 199 253 233 215 223 252 157 92 203 137 169 310 167 96 18 125 123 143 148 149 147 136 130 134 132 133 135 135 134 129 121 124 124 127 127 121 105 97 96 94 92 93 92 88 79 72 72 74
242 228 221 217 221 212 149 114 202 184 177 154 292 151 86 62 102 130 157 151 149 150 119 136 132 131 132 129 125 129 130 130 133 132 132 133 120 113 103 101 98 98 102 103 101 91 84 81 85
219 221 215 210 210 176 155 134 135 228 143 162 190 307 80 60 95 142 155 156 144 132 131 137 127 130 131 128 126 129 133 138 142 141 136 134 121 116 102 101 100 99 98 99 97 89 80 77 77
220 214 223 213 199 142 180 203 124 55 167 116 121 255 90 100 108 162 161 153 153 118 148 142 147 135 125 125 127 128 128 129 172 156 141 133 129 124 108 111 111 110 105 98 92 86 79 72 72
237 243 234 224 189 165 163 164 84 14 86 128 314 185 138 115 79 299 161 157 159 133 133 151 153 163 158 148 131 129 125 102 103 128 125 122 123 109 116 133 114 113 114 110 104 95 83 70 67
262 244 223 193 172 153 169 177 109 33 138 73 27 24 55 108 120 81 90 137 177 128 145 149 162 158 162 150 129 135 137 121 123 122 133 161 155 171 170 94 114 120 128 138 144 136 141 185 188
191 233 209 192 188 150 169 195 109 164 155 131 77 99 67 136 156 162 167 189 147 159 172 154 169 143 178 156 157 152 142 176 185 178 173 207 152 96 61 111 128 146 158 178 190 194 207 236 212
194 226 243 241 213 224 152 151 109 6 109 38 28 30 87 155 162 182 194 174 171 168 174 159 170 159 161 161 190 160 173 174 173 181 180 187 170 156 202 166 184 202 200 209 192 192 220 224 284
243 208 228 293 158 187 176 166 112 35 59 41 14 23 137 159 148 193 176 182 179 169 189 164 178 167 158 192 207 166 177 177 174 181 185 176 187 177 204 211 196 213 208 232 233 248 242 226 237
211 202 203 232 241 176 164 176 106 199 180 280 339 49 144 165 159 144 232 233 179 168 183 221 173 182 162 173 228 179 185 193 180 177 193 196 190 189 191 208 215 226 237 245 241 240 251 243 255
204 218 193 212 268 213 193 184 165 215 217 221 295 37 88 190 182 175 195 246 216 198 186 196 207 193 176 188 185 209 200 178 187 179 194 197 217 201 198 210 223 229 225 237 241 250 243 259 250
214 205 201 178 186 220 197 193 197 189 198 223 244 172 84 83 189 200 185 204 216 217 199 185 201 192 189 199 201 214 198 195 186 196 185 198 193 205 204 231 211 213 223 236 244 255 257 265 266
190 189 201 209 218 141 203 211 204 210 200 234 260 276 189 115 161 158 196 199 196 196 197 195 180 193 201 183 199 225 192 197 206 201 192 196 202 204 210 220 227 233 224 231 244 246 254 257 263
197 189 206 186 198 176 207 229 250 195 240 250 250 262 246 207 230 141 159 203 202 202 193 182 183 194 198 206 200 209 213 210 210 208 210 202 212 213 221 231 235 240 237 241 243 253 256 265 271
176 209 196 189 197 211 208 233 133 187 205 236 250 253 245 218 208 183 188 203 203 209 189 185 190 207 199 204 216 213 213 233 235 229 223 225 229 221 230 245 250 255 249 248 254 253 262 270 277
193 209 186 221 161 191 224 222 201 188 221 231 238 245 255 218 206 171 192 191 202 198 201 203 191 199 211 207 206 220 216 214 230 238 254 252 252 259 248 252 260 250 256 266 274 273 281 267 270
243 198 186 170 151 199 219 224 222 227 224 227 232 228 235 242 223 197 202 209 222 218 200 200 198 193 204 205 214 246 236 235 240 192 220 251 258 256 270 266 279 295 300 273 270 284 276 288 300
233 186 169 180 172 215 257 234 227 225 227 240 236 234 227 229 232 219 199 206 192 212 201 205 191 198 197 216 158 123 68 14 230 213 184 113 335 11 359 353 339 338 341 301 317 322 276 254 259
181 197 178 168 176 205 207 260 203 212 220 230 231 233 233 227 225 241 189 192 188 196 146 185 164 170 168 185 206 223 231 237 81 40 68 133 38 53 12 332 308 296 266 242 249 255 270 247 255
197 135 171 150 214 281 179 255 268 180 220 231 230 230 235 234 227 240 177 192 168 159 177 169 165 161 160 176 201 191 207 87 109 153 179 192 130 57 33 354 324 303 307 297 299 283 254 251 266
148 151 117 216 244 242 247 220 252 203 234 229 238 229 222 231 234 224 209 199 172 151 168 170 163 161 163 159 160 181 174 174 175 180 223 211 185 115 46 348 332 312 304 302 298 279 283 280 267
156 160 147 183 205 241 360 225 253 7 203 237 248 255 234 220 228 230 211 194 183 171 171 172 172 163 159 148 142 134 135 154 182 162 252 282 234 221 18 339 335 328 325 310 301 291 273 277 268
193 187 176 194 195 200 140 232 239 302 268 314 278 268 249 285 256 227 206 188 195 179 176 174 169 157 153 144 143 123 113 101 93 84 52 337 341 356 357 337 329 329 325 319 309 301 281 339 312
171 204 0 343 31 309 171 221 268 242 208 237 247 251 232 224 237 223 238 204 197 187 181 179 178 158 152 149 147 130 113 106 94 82 61 40 18 358 339 329 331 332 326 327 322 307 314 302 308
232 164 189 279 182 215 157 233 119 142 111 96 79 45 8 299 253 243 215 213 197 180 174 179 174 160 155 150 132 127 109 96 93 72 57 39 1 343 331 329 326 329 326 328 326 314 321 286 338
165 189 230 289 313 304 178 137 93 116 102 93 79 55 31 1 296 229 198 182 187 177 168 168 163 152 145 143 132 130 126 122 109 84 43 9 340 344 339 330 323 325 328 330 313 338 326 288 305
281 249 215 222 196 256 324 331 168 161 118 138 106 49 19 333 304 186 170 167 169 167 174 167 158 153 151 149 150 141 138 143 149 115 35 1 345 342 341 333 325 328 336 329 333 348 18 79 90